Zurück zum Katalog

YAOGAN-36 04C

AktivMilitärVLEO
NORAD 54750·PAYLOAD·🇨🇳 China

Gestartet Dec 14, 2022 von Xichang Satellite Launch Center

Loading…

Nächste Überflüge (nächste 24 Stunden)

TLE

AktuellSource: Space-Track

Epoche: Sep 14, 2026, 14:18 UTC

1 54750U 22171E   26257.59636906  .00014152  00000-0  40994-3 0  9992
2 54750  34.9812 331.9031 0005984 224.9307 135.0927 15.34698959209224

Verfolge YAOGAN-36 04C in Echtzeit mit AllMySat

Download on the App Store